Home > Weather > Sacramento > Past weeks

Flag for USA Past Weather in Sacramento, California, USA — Yesterday and Last 2 Weeks

Now
62 °F

Clear.


Feels Like: 62 °F
Forecast: 63 / 103 °F
Wind: 3 mph from South

Location: Sacramento Executive Airport

Current Time: Jun 29, 2016 at 5:45:04 AM

Latest Report: Jun 29, 2016 at 4:53 AM


Visibility: 10 mi

Pressure: 29.85 "Hg

Humidity: 67%

Dew Point: 51 °F

Location of SacramentoLocation

Past Weather in Sacramento — Graph

°F

Sacramento Temperature Yesterday

Maximum temperature yesterday: 102 °F (at 3:53 PM)
Minimum temperature yesterday: 65 °F (at 5:53 AM)
Average temperature yesterday: 82 °F

High & Low Weather Summary for the Past Weeks

 TemperatureHumidityPressure
High104 °F (Jun 27, 3:53 PM)90% (Jun 17, 5:53 AM)30.19 "Hg (Jun 17, 5:53 AM)
Low51 °F (Jun 16, 4:53 AM)8% (Jun 20, 4:53 PM)29.82 "Hg (Jun 28, 5:53 PM)
Average74 °F45%29.96 "Hg
* Reported Jun 14 3:53 AM — Jun 29 3:53 AM, Sacramento, Weather by CustomWeather, © 2016

Note: Actual official high and low records may vary slightly from our data, if they occured in-between our weather recording intervals... More about our weather records

Advertising

Sacramento Weather History for the Previous 24 Hours

Scroll right to see more
 ConditionsComfort  
Time TempWeatherWind HumidityBarometerVisibility
3:53 AM
Wed, Jun 29
64 °FClear.6 mph61%29.84 "Hg10 mi
2:53 AM66 °FClear.No wind59%29.84 "Hg10 mi
1:53 AM67 °FClear.3 mph57%29.85 "Hg10 mi
12:53 AM68 °FClear.6 mph53%29.86 "Hg10 mi
11:53 PM
Tue, Jun 28
71 °FClear.3 mph47%29.85 "Hg10 mi
10:53 PM72 °FClear.6 mph48%29.87 "Hg10 mi
9:53 PM76 °FClear.6 mph40%29.85 "Hg10 mi
8:53 PM82 °FSunny.7 mph35%29.85 "Hg10 mi
7:53 PM88 °FSunny.8 mph31%29.84 "Hg10 mi
6:53 PM93 °FSunny.12 mph25%29.82 "Hg10 mi
5:53 PM99 °FSunny.13 mph20%29.82 "Hg10 mi
4:53 PM102 °FSunny.10 mph15%29.84 "Hg10 mi
3:53 PM102 °FSunny.8 mph17%29.85 "Hg10 mi
2:53 PM101 °FSunny.9 mph21%29.88 "Hg10 mi
1:53 PM98 °FSunny.5 mph24%29.90 "Hg10 mi
12:53 PM97 °FSunny.7 mph23%29.92 "Hg10 mi
11:53 AM92 °FSunny.N/A28%29.93 "Hg10 mi
10:53 AM87 °FSunny.3 mph35%29.93 "Hg10 mi
9:53 AM82 °FSunny.5 mph40%29.94 "Hg10 mi
8:53 AM77 °FSunny.3 mph47%29.93 "Hg10 mi
7:53 AM72 °FSunny.No wind53%29.93 "Hg10 mi
6:53 AM67 °FSunny.No wind63%29.92 "Hg10 mi
5:53 AM65 °FClear.No wind66%29.91 "Hg10 mi
Weather by CustomWeather, © 2016

See weather overviewHow to use our weather pages